Terug naar catalogus

STARLINK-35410

ActiefCommunicatieVLEO
NORAD 66024·PAYLOAD·🇺🇸 United States

Gelanceerd Oct 16, 2025 vanaf Cape Canaveral Space Force Station

Loading…

Volgende Passages (komende 24 uur)

TLE

VersSource: CelesTrak SupGP

Epoch: Sep 14, 2026, 20:41 UTC

1 66024C 25232V   26257.86229167 -.00002276  00000+0 -67255-4 0  2579
2 66024  53.1584 301.7566 0001218  93.2699  49.0376 15.34382232    17

Volg STARLINK-35410 in realtime met AllMySat

Download on the App Store